This is the latest recevied weather packets stored in our database for station/object DJ2RF. If no packets are shown the sender has not sent any weather packets the latest 10 day(s).
| Time | Temp. | Humidity | Pressure | Rain* | Wind** | Luminosity | Snow |
|---|---|---|---|---|---|---|---|
| 1778241657 | 17.22° C | 60% | 1018.1 hPa | 0 mm | - | - | - |
| 1778241061 | 16.11° C | 62% | 1018.1 hPa | 0 mm | - | - | - |
| 1778240526 | 17.22° C | 61% | 1018.2 hPa | 0 mm | - | - | - |
| 1778239997 | 17.22° C | 62% | 1018.2 hPa | 0 mm | - | - | - |
| 1778239516 | 17.22° C | 65% | 1018.1 hPa | 0 mm | - | - | - |
| 1778238925 | 16.67° C | 66% | 1018.3 hPa | 0 mm | - | - | - |
| 1778238369 | 16.11° C | 65% | 1018.3 hPa | 0 mm | - | - | - |
| 1778237827 | 16.11° C | 65% | 1018.5 hPa | 0 mm | - | - | - |
| 1778237228 | 16.11° C | 64% | 1018.6 hPa | 0 mm | - | - | - |
| 1778236690 | 16.11° C | 67% | 1018.8 hPa | 0 mm | - | - | - |
| 1778236104 | 15.56° C | 69% | 1018.8 hPa | 0 mm | - | - | - |
| 1778235563 | 15° C | 70% | 1018.8 hPa | 0 mm | - | - | - |
| 1778234972 | 15° C | 69% | 1018.9 hPa | 0 mm | - | - | - |
| 1778234467 | 15° C | 70% | 1018.9 hPa | 0 mm | - | - | - |
| 1778233874 | 15° C | 72% | 1018.9 hPa | 0 mm | - | - | - |
| 1778233302 | 14.44° C | 72% | 1018.9 hPa | 0 mm | - | - | - |
| 1778232737 | 14.44° C | 73% | 1018.8 hPa | 0 mm | - | - | - |
| 1778232242 | 13.89° C | 75% | 1018.8 hPa | 0 mm | - | - | - |
| 1778231717 | 13.89° C | 74% | 1018.7 hPa | 0 mm | - | - | - |
| 1778231202 | 13.89° C | 76% | 1018.9 hPa | 0 mm | - | - | - |
| 1778230615 | 13.33° C | 77% | 1018.9 hPa | 0 mm | - | - | - |
| 1778230074 | 12.78° C | 78% | 1018.9 hPa | 0 mm | - | - | - |
| 1778229542 | 12.78° C | 79% | 1018.8 hPa | 0 mm | - | - | - |
| 1778229047 | 12.22° C | 80% | 1019 hPa | 0 mm | - | - | - |
| 1778228454 | 12.22° C | 82% | 1019 hPa | 0 mm | - | - | - |
* Rain latest hour (hover to see other rain measurements)
** Current wind speed in m/s (hover to see current wind gust speed)